METAR Formatted Surface Weather Observation
Issued by NWS Albuquerque, NM

Home | Current Version | Previous Version | Text Only | Print | Product List | Glossary On
Versions: 1 2 3 4 5 6 7 8 9 10 11 12 13 14 15 16 17 18 19 20 21 22 23 24 25 26 27 28 29 30 31 32 33 34 35 36 37 38 39 40 41 42 43 44 45 46 47 48 49 50
000
SAUS45 KABQ 011653
MTRABQ
METAR KABQ 011652Z 34008KT 10SM FEW040 05/M01 A3014 RMK AO2 SLP199
MTN TOPS OBSC NE AND SE T00501006



USA.gov is the U.S. government's official web portal to all federal, state and local government web resources and services.